Location: Carri�res
(48.9069°N, 2.1792°E)
Time: 12:55:53
(UTC+00:00)

Cosmos 1536 Rocket - Pass Details

Date: 17 January 2021
Orbit: 605 x 632 km, 82.5° (Epoch: 25 February)

Event Time Altitude Azimuth Distance (km) Brightness Sun altitude
Rises 17:02:39 0° 179° (S) 2,866 7.3 -6.2°
Reaches altitude 10° 17:04:52 10° 176° (S) 1,970 6.4 -6.6°
Maximum altitude 17:09:10 62° 96° (E) 700 3.6 -7.2°
Drops below altitude 10° 17:13:33 10° 16° (NNE) 2,003 5.8 -7.9°
Sets 17:15:48 0° 13° (NNE) 2,919 6.7 -8.2°
